Starlink 31460

operational
NORAD ID: 59008 Int'l Des: 2024-036 Owner: SPXS Country: US Constellation: starlink
LEOCIRCULAR

Starlink 31460について

説明を読み込み中...

リアルタイム位置

3D地球を読み込み中...

次回通過

高度履歴

Altitude vs Time

uPlot chart will show altitude changes over time

軌道要素

1 59008U 24036L 25351.60435312 -.00001125 00000-0 -25865-4 0 9998
2 59008 53.1614 99.5493 0001009 75.3133 284.7980 15.30192845102756
Epoch: Dec 17, 2025 • Age: 9 hours

現在のステータス

高度 490.3 km
速度 7.62 km/s
衛星直下点 -42.99°S, 115.69°W
打ち上げ日 Feb 23, 2024
運用期間 1.8 years
タイプ internet

技術仕様

分類 Payload
質量 730.00 kg
乾燥質量 700.00 kg
総質量 730.00 kg
長さ 0.30 m
直径 4.10 m
スパン 29.00 m
形状 Box + pan
製造者 SPXS
バスタイプ Starlink V2M
フェーズステータス In Orbit
所有者/国 SPXS/US

大規模コンステレーション

Loading constellations...